GSAT-9 (42695 NORAD) Tracking and Keplerian Element Data

This shows tracking and keplerian element data for the satellite.

Feedback or suggestion? Click here.




ElementValue
Catalog42695
NameGSAT-9
Epoch Orbit707
Epoch Day106.87640067
Epoch Year2019
RAAN116.8412
Inclination0.0364
Eccentricity0.0002425
Argument of Perigee281.9567
Mean Anonmoly218.7731
Mean Motion1.00274424
Decay Rate-3.09E-06
L11 42695U 17024A 19106.87640067 -.00000309 00000-0 00000-0 0 9998
L22 42695 0.0364 116.8412 0002425 281.9567 218.7731 1.00274424 7072

Live tracking and technical data element details for GSAT-9 (NORAD 42695). GSAT-9 can be tracked NOW for your location showing map with azimuth and elevation plus other details from your city location.

Track the satellite on the map from your city or location and see movement details for azimuth, elevation, latitude, longitude, range, height, and movement on the map or in text.







IsCatalogInMostPopularTable: catalog: 42695, numindb: 192
Update: records affected: 1



GetName: 42695 GSAT-9

Hit Count: updated at: Sat, 20 Apr 2019 00:53:50 GMT